• In Russia
  • List of Countries
  • For 7 days
  • Water Temperature
  • Satellite Maps
  • Weather Map
  • Weather Widgets
  • user-avatar
    Login

    Hourly Weather Przyrowa

    Today, 25 March, Monday

    Time Temperature Precipitation Wind Pressure Humidity
    00:00 +6°C° 0 mm 1 mps 753 mmHg 64%
    01:00 +4°C° 0 mm 2 mps 752 mmHg 66%
    02:00 +3°C° 0 mm 2 mps 752 mmHg 67%
    03:00 +3°C° 0 mm 2 mps 751 mmHg 69%
    04:00 +2°C° 0 mm 2 mps 751 mmHg 71%
    05:00 +2°C° 0 mm 2 mps 751 mmHg 70%
    06:00 +3°C° 0 mm 2 mps 750 mmHg 69%
    07:00 +3°C° 0 mm 2 mps 750 mmHg 65%
    08:00 +5°C° 0 mm 2 mps 749 mmHg 62%
    09:00 +6°C° 0 mm 2 mps 749 mmHg 58%
    10:00 +7°C° 0 mm 2 mps 749 mmHg 55%
    11:00 +7°C° 0.3 mm 2 mps 748 mmHg 55%
    12:00 +8°C° 0.3 mm 3 mps 748 mmHg 55%
    13:00 +8°C° 0.3 mm 3 mps 748 mmHg 55%
    14:00 +8°C° 0.3 mm 3 mps 748 mmHg 56%
    15:00 +7°C° 0.3 mm 3 mps 748 mmHg 57%
    16:00 +7°C° 0.3 mm 3 mps 748 mmHg 58%
    17:00 +5°C° 0 mm 3 mps 748 mmHg 63%
    18:00 +4°C° 0 mm 3 mps 749 mmHg 69%
    19:00 +3°C° 0 mm 3 mps 749 mmHg 74%
    20:00 +2°C° 0 mm 3 mps 750 mmHg 78%
    21:00 +1°C° 0 mm 4 mps 750 mmHg 82%
    22:00 0°C° 0 mm 4 mps 751 mmHg 85%
    23:00 0°C° 0 mm 4 mps 752 mmHg 87%

    Tomorrow, 26 March, Tuesday

    Time Temperature Precipitation Wind Pressure Humidity
    00:00 0°C° 0 mm 4 mps 752 mmHg 89%
    01:00 0°C° 0 mm 4 mps 753 mmHg 91%
    02:00 0°C° 0 mm 4 mps 753 mmHg 89%
    03:00 0°C° 0 mm 4 mps 753 mmHg 87%
    04:00 0°C° 0 mm 4 mps 753 mmHg 85%
    05:00 0°C° 0 mm 4 mps 754 mmHg 85%
    06:00 0°C° 0 mm 4 mps 754 mmHg 85%
    07:00 0°C° 0 mm 4 mps 754 mmHg 85%
    08:00 +1°C° 0 mm 5 mps 753 mmHg 79%
    09:00 +3°C° 0 mm 6 mps 753 mmHg 74%
    10:00 +4°C° 0 mm 8 mps 753 mmHg 68%
    11:00 +4°C° 0.2 mm 8 mps 752 mmHg 64%
    12:00 +5°C° 0.2 mm 9 mps 752 mmHg 61%
    13:00 +5°C° 0.2 mm 10 mps 751 mmHg 57%
    14:00 +3°C° 0.4 mm 10 mps 751 mmHg 61%
    15:00 +2°C° 0.4 mm 10 mps 751 mmHg 64%
    16:00 +1°C° 0.4 mm 10 mps 751 mmHg 67%
    17:00 0°C° 0 mm 9 mps 752 mmHg 67%
    18:00 -2°C° 0 mm 7 mps 753 mmHg 67%
    19:00 -3°C° 0 mm 6 mps 754 mmHg 67%
    20:00 -2°C° 0 mm 5 mps 755 mmHg 69%
    21:00 -4°C° 0 mm 5 mps 756 mmHg 71%
    22:00 -4°C° 0 mm 5 mps 756 mmHg 73%
    23:00 -3°C° 0 mm 4 mps 757 mmHg 74%

    Day after tomorrow, 27 March, Wednesday

    Time Temperature Precipitation Wind Pressure Humidity
    00:00 -3°C° 0 mm 4 mps 757 mmHg 75%
    01:00 -3°C° 0 mm 4 mps 758 mmHg 76%
    02:00 -2°C° 0 mm 3 mps 758 mmHg 76%
    03:00 -2°C° 0 mm 3 mps 758 mmHg 76%
    04:00 -2°C° 0 mm 3 mps 758 mmHg 76%
    05:00 -2°C° 0 mm 3 mps 758 mmHg 71%
    06:00 -1°C° 0 mm 3 mps 759 mmHg 65%
    07:00 0°C° 0 mm 3 mps 759 mmHg 60%
    08:00 +2°C° 0 mm 3 mps 759 mmHg 55%
    09:00 +3°C° 0 mm 3 mps 759 mmHg 51%
    10:00 +5°C° 0 mm 4 mps 759 mmHg 47%
    11:00 +5°C° 0.1 mm 4 mps 759 mmHg 51%
    12:00 +5°C° 0.1 mm 4 mps 759 mmHg 56%
    13:00 +5°C° 0.1 mm 4 mps 759 mmHg 60%
    14:00 +5°C° 0 mm 4 mps 759 mmHg 64%
    15:00 +5°C° 0 mm 3 mps 759 mmHg 69%
    16:00 +5°C° 0 mm 3 mps 759 mmHg 73%
    17:00 +5°C° 0.1 mm 2 mps 759 mmHg 79%
    18:00 +6°C° 0.1 mm 1 mps 760 mmHg 86%
    19:00 +5°C° 0.1 mm 1 mps 760 mmHg 92%
    20:00 +5°C° 0.1 mm 1 mps 760 mmHg 93%
    21:00 +5°C° 0.1 mm 1 mps 761 mmHg 94%
    22:00 +5°C° 0.1 mm 1 mps 761 mmHg 95%
    23:00 +5°C° 0.1 mm 1 mps 761 mmHg 95%

    28 March, Thursday

    Time Temperature Precipitation Wind Pressure Humidity
    00:00 +4°C° 0.1 mm 0 mps 761 mmHg 96%
    01:00 +4°C° 0.1 mm 0 mps 761 mmHg 96%
    02:00 +5°C° 0.1 mm 1 mps 761 mmHg 96%
    03:00 +5°C° 0.1 mm 1 mps 761 mmHg 97%
    04:00 +5°C° 0.1 mm 1 mps 762 mmHg 97%
    05:00 +5°C° 0.2 mm 1 mps 762 mmHg 96%
    06:00 +5°C° 0.2 mm 1 mps 762 mmHg 96%
    07:00 +5°C° 0.2 mm 1 mps 762 mmHg 95%
    08:00 +6°C° 0.1 mm 1 mps 763 mmHg 92%
    09:00 +7°C° 0.1 mm 1 mps 763 mmHg 89%
    10:00 +7°C° 0.1 mm 1 mps 763 mmHg 86%
    11:00 +8°C° 0 mm 1 mps 763 mmHg 81%
    12:00 +9°C° 0 mm 1 mps 763 mmHg 75%
    13:00 +11°C° 0 mm 1 mps 764 mmHg 70%
    14:00 +11°C° 0 mm 1 mps 764 mmHg 68%
    15:00 +11°C° 0 mm 1 mps 764 mmHg 67%
    16:00 +11°C° 0 mm 1 mps 764 mmHg 65%
    17:00 +10°C° 0 mm 1 mps 764 mmHg 70%
    18:00 +9°C° 0 mm 1 mps 764 mmHg 76%
    19:00 +8°C° 0 mm 1 mps 765 mmHg 81%
    20:00 +7°C° 0 mm 1 mps 765 mmHg 82%
    21:00 +7°C° 0 mm 1 mps 765 mmHg 83%
    22:00 +6°C° 0 mm 1 mps 765 mmHg 85%
    23:00 +6°C° 0 mm 1 mps 765 mmHg 86%

    29 March, Friday

    Time Temperature Precipitation Wind Pressure Humidity
    00:00 +4°C° 0 mm 2 mps 765 mmHg 87%
    01:00 +4°C° 0 mm 2 mps 766 mmHg 88%
    02:00 +4°C° 0 mm 2 mps 765 mmHg 89%
    03:00 +3°C° 0 mm 2 mps 765 mmHg 90%
    04:00 +3°C° 0 mm 2 mps 765 mmHg 92%
    05:00 +3°C° 0 mm 3 mps 765 mmHg 89%
    06:00 +4°C° 0 mm 3 mps 765 mmHg 87%
    07:00 +4°C° 0 mm 4 mps 765 mmHg 85%
    08:00 +6°C° 0 mm 4 mps 765 mmHg 79%
    09:00 +8°C° 0 mm 4 mps 765 mmHg 73%
    10:00 +10°C° 0 mm 5 mps 765 mmHg 67%
    11:00 +12°C° 0 mm 5 mps 765 mmHg 65%
    12:00 +13°C° 0 mm 5 mps 764 mmHg 64%
    13:00 +14°C° 0 mm 5 mps 764 mmHg 63%
    14:00 +14°C° 0 mm 5 mps 763 mmHg 63%
    15:00 +14°C° 0 mm 5 mps 763 mmHg 64%
    16:00 +14°C° 0 mm 5 mps 762 mmHg 64%
    17:00 +12°C° 0 mm 4 mps 762 mmHg 71%
    18:00 +11°C° 0 mm 3 mps 762 mmHg 78%
    19:00 +9°C° 0 mm 2 mps 762 mmHg 86%
    20:00 +9°C° 0 mm 3 mps 762 mmHg 87%
    21:00 +8°C° 0 mm 3 mps 763 mmHg 88%
    22:00 +8°C° 0 mm 3 mps 763 mmHg 90%
    23:00 +8°C° 0 mm 3 mps 762 mmHg 90%

    30 March, Saturday

    Time Temperature Precipitation Wind Pressure Humidity
    00:00 +7°C° 0 mm 3 mps 762 mmHg 90%
    01:00 +7°C° 0 mm 3 mps 762 mmHg 91%
    02:00 +5°C° 0 mm 3 mps 762 mmHg 92%
    03:00 +5°C° 0 mm 3 mps 762 mmHg 93%
    04:00 +5°C° 0 mm 3 mps 762 mmHg 93%
    05:00 +6°C° 0 mm 4 mps 762 mmHg 91%
    06:00 +6°C° 0 mm 4 mps 761 mmHg 89%
    07:00 +7°C° 0 mm 5 mps 761 mmHg 87%
    08:00 +9°C° 0 mm 5 mps 761 mmHg 79%
    09:00 +10°C° 0 mm 5 mps 761 mmHg 71%
    10:00 +13°C° 0 mm 5 mps 761 mmHg 63%
    11:00 +14°C° 0 mm 5 mps 760 mmHg 61%
    12:00 +15°C° 0 mm 5 mps 760 mmHg 59%
    13:00 +16°C° 0 mm 5 mps 759 mmHg 56%
    14:00 +16°C° 0 mm 5 mps 758 mmHg 57%
    15:00 +16°C° 0 mm 5 mps 758 mmHg 58%
    16:00 +17°C° 0 mm 4 mps 757 mmHg 59%
    17:00 +14°C° 0 mm 4 mps 757 mmHg 66%
    18:00 +13°C° 0 mm 3 mps 757 mmHg 73%
    19:00 +11°C° 0 mm 3 mps 756 mmHg 80%
    20:00 +10°C° 0 mm 3 mps 756 mmHg 81%
    21:00 +10°C° 0 mm 3 mps 755 mmHg 82%
    22:00 +9°C° 0 mm 3 mps 755 mmHg 83%
    23:00 +9°C° 0 mm 3 mps 755 mmHg 83%
    Show more